Time,TemperatureF,DewpointF,PressureIn,WindDirection,WindDirectionDegrees,WindSpeedMPH,WindSpeedGustMPH,Humidity,HourlyPrecipIn,Conditions,Clouds,dailyrainin,SoftwareType,DateUTC
2013-04-22 00:00:00,68.3,64.3,30.03,East,98,7.0,8.0,87,0.00,,,0.00,Wunderground v.1.15,2013-04-22 05:00:00,
2013-04-22 00:10:00,68.4,64.7,30.03,ESE,111,7.0,10.0,88,0.00,,,0.00,Wunderground v.1.15,2013-04-22 05:10:00,
2013-04-22 00:20:00,68.3,64.6,30.03,East,98,6.0,6.0,88,0.00,,,0.00,Wunderground v.1.15,2013-04-22 05:20:00,
2013-04-22 00:25:00,68.3,64.6,30.04,East,88,6.0,6.0,88,0.00,,,0.00,Wunderground v.1.15,2013-04-22 05:25:00,
2013-04-22 00:30:00,68.2,64.5,30.03,ENE,73,6.0,6.0,88,0.00,,,0.00,Wunderground v.1.15,2013-04-22 05:30:00,
2013-04-22 00:35:00,68.2,64.5,30.03,SE,127,6.0,6.0,88,0.00,,,0.00,Wunderground v.1.15,2013-04-22 05:35:00,
2013-04-22 00:40:00,68.2,64.5,30.03,ESE,111,6.0,6.0,88,0.00,,,0.00,Wunderground v.1.15,2013-04-22 05:40:00,
2013-04-22 00:45:00,68.2,64.5,30.03,ESE,113,6.0,6.0,88,0.00,,,0.00,Wunderground v.1.15,2013-04-22 05:45:00,
2013-04-22 00:55:00,68.2,64.8,30.03,East,94,5.0,5.0,89,0.00,,,0.00,Wunderground v.1.15,2013-04-22 05:55:00,
2013-04-22 01:00:00,68.1,64.7,30.03,ESE,109,5.0,5.0,89,0.00,,,0.00,Wunderground v.1.15,2013-04-22 06:00:00,
2013-04-22 01:10:00,68.1,64.4,30.03,East,92,6.0,6.0,88,0.00,,,0.00,Wunderground v.1.15,2013-04-22 06:10:00,
2013-04-22 01:15:00,68.1,64.4,30.03,ENE,75,7.0,7.0,88,0.00,,,0.00,Wunderground v.1.15,2013-04-22 06:15:00,
2013-04-22 01:25:00,68.2,64.5,30.03,SE,142,5.0,6.0,88,0.00,,,0.00,Wunderground v.1.15,2013-04-22 06:25:00,
2013-04-22 01:30:00,68.1,64.7,30.03,East,89,4.0,4.0,89,0.00,,,0.00,Wunderground v.1.15,2013-04-22 06:30:00,
2013-04-22 01:35:00,68.1,64.7,30.02,East,101,5.0,5.0,89,0.00,,,0.00,Wunderground v.1.15,2013-04-22 06:35:00,
2013-04-22 01:40:00,68.1,64.7,30.03,East,89,6.0,6.0,89,0.00,,,0.00,Wunderground v.1.15,2013-04-22 06:40:00,
2013-04-22 01:45:00,68.1,64.7,30.02,ESE,105,5.0,6.0,89,0.00,,,0.00,Wunderground v.1.15,2013-04-22 06:45:00,
2013-04-22 01:50:00,68.0,64.6,30.02,ESE,103,5.0,9.0,89,0.00,,,0.00,Wunderground v.1.15,2013-04-22 06:50:00,
2013-04-22 02:00:00,68.0,64.6,30.02,ESE,110,5.0,5.0,89,0.00,,,0.00,Wunderground v.1.15,2013-04-22 07:00:00,
2013-04-22 02:10:00,67.9,64.5,30.02,ENE,73,5.0,5.0,89,0.00,,,0.00,Wunderground v.1.15,2013-04-22 07:10:00,
2013-04-22 02:15:00,68.0,64.6,30.02,ESE,105,5.0,5.0,89,0.00,,,0.00,Wunderground v.1.15,2013-04-22 07:15:00,
2013-04-22 02:20:00,67.9,64.5,30.02,NE,43,4.0,4.0,89,0.00,,,0.00,Wunderground v.1.15,2013-04-22 07:20:00,
2013-04-22 02:25:00,67.9,64.5,30.02,East,94,5.0,5.0,89,0.00,,,0.00,Wunderground v.1.15,2013-04-22 07:25:00,
2013-04-22 02:30:00,68.0,64.6,30.02,SE,125,6.0,9.0,89,0.00,,,0.00,Wunderground v.1.15,2013-04-22 07:30:00,
2013-04-22 02:35:00,67.9,64.5,30.01,East,94,5.0,9.0,89,0.00,,,0.00,Wunderground v.1.15,2013-04-22 07:35:00,
2013-04-22 02:40:00,67.9,64.2,30.01,ESE,122,6.0,6.0,88,0.00,,,0.00,Wunderground v.1.15,2013-04-22 07:40:00,
2013-04-22 02:45:00,67.9,64.2,30.01,SE,136,6.0,6.0,88,0.00,,,0.00,Wunderground v.1.15,2013-04-22 07:45:00,
2013-04-22 02:50:00,67.9,64.5,30.01,SE,127,5.0,5.0,89,0.00,,,0.00,Wunderground v.1.15,2013-04-22 07:50:00,
2013-04-22 02:55:00,67.9,64.2,30.01,ESE,111,5.0,11.0,88,0.00,,,0.00,Wunderground v.1.15,2013-04-22 07:55:00,
2013-04-22 03:00:00,67.9,64.2,30.01,ENE,76,6.0,6.0,88,0.00,,,0.00,Wunderground v.1.15,2013-04-22 08:00:00,
2013-04-22 03:10:00,67.9,64.2,30.01,ESE,104,4.0,4.0,88,0.00,,,0.00,Wunderground v.1.15,2013-04-22 08:10:00,
2013-04-22 03:20:00,67.9,64.2,30.00,East,82,4.0,4.0,88,0.00,,,0.00,Wunderground v.1.15,2013-04-22 08:20:00,
2013-04-22 03:25:00,67.9,64.5,30.00,ENE,68,4.0,6.0,89,0.00,,,0.00,Wunderground v.1.15,2013-04-22 08:25:00,
2013-04-22 03:30:00,67.9,64.5,30.00,ESE,112,5.0,5.0,89,0.00,,,0.00,Wunderground v.1.15,2013-04-22 08:30:00,
2013-04-22 03:35:00,68.0,64.6,30.00,ESE,103,5.0,5.0,89,0.00,,,0.00,Wunderground v.1.15,2013-04-22 08:35:00,
2013-04-22 03:40:00,68.0,64.6,30.00,East,101,5.0,6.0,89,0.00,,,0.00,Wunderground v.1.15,2013-04-22 08:40:00,
2013-04-22 03:45:00,68.0,64.6,30.00,East,99,5.0,7.0,89,0.00,,,0.00,Wunderground v.1.15,2013-04-22 08:45:00,
2013-04-22 03:50:00,68.0,64.6,30.00,SE,131,5.0,5.0,89,0.00,,,0.00,Wunderground v.1.15,2013-04-22 08:50:00,
2013-04-22 03:55:00,68.0,64.6,29.99,East,100,5.0,5.0,89,0.00,,,0.00,Wunderground v.1.15,2013-04-22 08:55:00,
2013-04-22 04:00:00,68.0,64.6,29.99,ESE,112,4.0,4.0,89,0.00,,,0.00,Wunderground v.1.15,2013-04-22 09:00:00,
2013-04-22 04:10:00,67.8,64.4,29.99,ENE,68,4.0,6.0,89,0.00,,,0.00,Wunderground v.1.15,2013-04-22 09:10:00,
2013-04-22 04:15:00,67.8,64.4,29.99,East,95,4.0,6.0,89,0.00,,,0.00,Wunderground v.1.15,2013-04-22 09:15:00,
2013-04-22 04:20:00,67.9,64.5,29.99,East,86,4.0,4.0,89,0.00,,,0.00,Wunderground v.1.15,2013-04-22 09:20:00,
2013-04-22 04:25:00,67.8,64.4,29.99,ESE,122,4.0,7.0,89,0.00,,,0.00,Wunderground v.1.15,2013-04-22 09:25:00,
2013-04-22 04:30:00,67.9,64.5,29.99,ESE,109,5.0,7.0,89,0.00,,,0.00,Wunderground v.1.15,2013-04-22 09:30:00,
2013-04-22 04:35:00,67.9,64.5,29.99,East,94,4.0,7.0,89,0.00,,,0.00,Wunderground v.1.15,2013-04-22 09:35:00,
2013-04-22 04:40:00,67.9,64.5,29.99,SE,134,4.0,4.0,89,0.00,,,0.00,Wunderground v.1.15,2013-04-22 09:40:00,
2013-04-22 04:45:00,67.9,64.5,29.99,East,87,4.0,6.0,89,0.00,,,0.00,Wunderground v.1.15,2013-04-22 09:45:00,
2013-04-22 04:55:00,67.9,64.5,29.99,ESE,111,4.0,5.0,89,0.00,,,0.00,Wunderground v.1.15,2013-04-22 09:55:00,
2013-04-22 05:00:00,67.9,64.5,29.99,East,86,4.0,4.0,89,0.00,,,0.00,Wunderground v.1.15,2013-04-22 10:00:00,
2013-04-22 05:10:00,67.9,64.5,29.99,ESE,102,4.0,4.0,89,0.00,,,0.00,Wunderground v.1.15,2013-04-22 10:10:00,
2013-04-22 05:20:00,67.9,64.5,29.99,East,95,4.0,4.0,89,0.00,,,0.00,Wunderground v.1.15,2013-04-22 10:20:00,
2013-04-22 05:25:00,67.9,64.5,29.99,ESE,117,4.0,7.0,89,0.00,,,0.00,Wunderground v.1.15,2013-04-22 10:25:00,
2013-04-22 05:30:00,67.9,64.5,29.99,ESE,120,4.0,4.0,89,0.00,,,0.00,Wunderground v.1.15,2013-04-22 10:30:00,
2013-04-22 05:35:00,67.9,64.5,29.99,ENE,70,4.0,4.0,89,0.00,,,0.00,Wunderground v.1.15,2013-04-22 10:35:00,
2013-04-22 05:40:00,67.9,64.5,29.99,East,86,4.0,4.0,89,0.00,,,0.00,Wunderground v.1.15,2013-04-22 10:40:00,
2013-04-22 05:45:00,67.9,64.5,29.99,ENE,75,4.0,4.0,89,0.00,,,0.00,Wunderground v.1.15,2013-04-22 10:45:00,
2013-04-22 05:50:00,68.0,64.6,29.99,ESE,118,5.0,5.0,89,0.00,,,0.00,Wunderground v.1.15,2013-04-22 10:50:00,
2013-04-22 05:55:00,68.0,64.6,29.99,ESE,122,5.0,5.0,89,0.00,,,0.00,Wunderground v.1.15,2013-04-22 10:55:00,
2013-04-22 06:00:00,68.0,64.6,29.99,East,79,5.0,5.0,89,0.00,,,0.00,Wunderground v.1.15,2013-04-22 11:00:00,
2013-04-22 06:10:00,68.0,64.6,29.99,ESE,112,4.0,4.0,89,0.00,,,0.00,Wunderground v.1.15,2013-04-22 11:10:00,
2013-04-22 06:15:00,68.0,64.6,29.99,ESE,110,4.0,4.0,89,0.00,,,0.00,Wunderground v.1.15,2013-04-22 11:15:00,
2013-04-22 06:25:00,67.9,64.5,29.99,ESE,118,4.0,5.0,89,0.00,,,0.00,Wunderground v.1.15,2013-04-22 11:25:00,
2013-04-22 06:30:00,68.0,64.6,30.00,ENE,68,4.0,5.0,89,0.00,,,0.00,Wunderground v.1.15,2013-04-22 11:30:00,
2013-04-22 06:35:00,68.0,64.6,30.00,East,80,4.0,5.0,89,0.00,,,0.00,Wunderground v.1.15,2013-04-22 11:35:00,
2013-04-22 06:40:00,68.0,64.6,30.00,East,79,4.0,5.0,89,0.00,,,0.00,Wunderground v.1.15,2013-04-22 11:40:00,
2013-04-22 06:45:00,68.0,64.6,30.00,ENE,67,5.0,8.0,89,0.00,,,0.00,Wunderground v.1.15,2013-04-22 11:45:00,
2013-04-22 06:55:00,68.0,64.3,30.00,East,84,5.0,5.0,88,0.00,,,0.00,Wunderground v.1.15,2013-04-22 11:55:00,
2013-04-22 07:00:00,68.0,64.6,30.00,East,89,4.0,5.0,89,0.00,,,0.00,Wunderground v.1.15,2013-04-22 12:00:00,
2013-04-22 07:10:00,68.2,64.5,30.00,ESE,105,4.0,9.0,88,0.00,,,0.00,Wunderground v.1.15,2013-04-22 12:10:00,
2013-04-22 07:15:00,68.3,64.6,30.01,East,96,5.0,9.0,88,0.00,,,0.00,Wunderground v.1.15,2013-04-22 12:15:00,
2013-04-22 07:20:00,68.5,64.8,30.01,East,89,5.0,5.0,88,0.00,,,0.00,Wunderground v.1.15,2013-04-22 12:20:00,
2013-04-22 07:30:00,68.7,64.7,30.01,ESE,122,4.0,6.0,87,0.00,,,0.00,Wunderground v.1.15,2013-04-22 12:30:00,
2013-04-22 07:35:00,68.9,64.9,30.01,ENE,73,4.0,6.0,87,0.00,,,0.00,Wunderground v.1.15,2013-04-22 12:35:00,
2013-04-22 07:40:00,69.1,65.1,30.01,East,82,4.0,5.0,87,0.00,,,0.00,Wunderground v.1.15,2013-04-22 12:40:00,
2013-04-22 07:45:00,69.3,64.9,30.01,SE,126,5.0,5.0,86,0.00,,,0.00,Wunderground v.1.15,2013-04-22 12:45:00,
2013-04-22 07:50:00,69.2,64.8,30.01,East,93,5.0,6.0,86,0.00,,,0.00,Wunderground v.1.15,2013-04-22 12:50:00,
2013-04-22 08:00:00,69.6,65.2,30.01,ESE,112,4.0,6.0,86,0.00,,,0.00,Wunderground v.1.15,2013-04-22 13:00:00,
2013-04-22 08:10:00,69.8,65.1,30.01,ENE,68,5.0,5.0,85,0.00,,,0.00,Wunderground v.1.15,2013-04-22 13:10:00,
2013-04-22 08:15:00,70.0,65.3,30.01,ESE,117,4.0,5.0,85,0.00,,,0.00,Wunderground v.1.15,2013-04-22 13:15:00,
2013-04-22 08:20:00,70.2,65.1,30.02,ENE,68,4.0,4.0,84,0.00,,,0.00,Wunderground v.1.15,2013-04-22 13:20:00,
2013-04-22 08:25:00,70.3,65.2,30.02,East,101,5.0,5.0,84,0.00,,,0.00,Wunderground v.1.15,2013-04-22 13:25:00,
2013-04-22 08:35:00,70.6,65.5,30.02,ESE,114,4.0,10.0,84,0.00,,,0.00,Wunderground v.1.15,2013-04-22 13:35:00,
2013-04-22 08:40:00,70.7,65.6,30.02,ENE,72,5.0,5.0,84,0.00,,,0.00,Wunderground v.1.15,2013-04-22 13:40:00,
2013-04-22 08:45:00,70.8,65.4,30.02,ESE,112,5.0,5.0,83,0.00,,,0.00,Wunderground v.1.15,2013-04-22 13:45:00,
2013-04-22 08:50:00,70.8,65.4,30.02,ESE,122,4.0,4.0,83,0.00,,,0.00,Wunderground v.1.15,2013-04-22 13:50:00,
2013-04-22 08:55:00,70.9,65.5,30.03,SE,131,4.0,8.0,83,0.00,,,0.00,Wunderground v.1.15,2013-04-22 13:55:00,
2013-04-22 09:00:00,70.7,65.3,30.03,East,86,5.0,6.0,83,0.00,,,0.00,Wunderground v.1.15,2013-04-22 14:00:00,
2013-04-22 09:10:00,71.0,65.6,30.03,ESE,102,4.0,4.0,83,0.00,,,0.00,Wunderground v.1.15,2013-04-22 14:10:00,
2013-04-22 09:15:00,71.1,65.7,30.03,SE,128,5.0,5.0,83,0.00,,,0.00,Wunderground v.1.15,2013-04-22 14:15:00,
2013-04-22 09:20:00,71.4,65.6,30.03,ESE,121,5.0,5.0,82,0.00,,,0.00,Wunderground v.1.15,2013-04-22 14:20:00,
2013-04-22 09:25:00,71.4,65.6,30.03,ESE,110,6.0,6.0,82,0.00,,,0.00,Wunderground v.1.15,2013-04-22 14:25:00,
2013-04-22 09:30:00,71.4,65.6,30.03,East,87,6.0,6.0,82,0.00,,,0.00,Wunderground v.1.15,2013-04-22 14:30:00,
2013-04-22 09:40:00,71.9,65.8,30.03,ESE,117,5.0,5.0,81,0.00,,,0.00,Wunderground v.1.15,2013-04-22 14:40:00,
2013-04-22 09:45:00,72.0,65.8,30.03,ESE,118,5.0,12.0,81,0.00,,,0.00,Wunderground v.1.15,2013-04-22 14:45:00,
2013-04-22 09:50:00,72.0,65.8,30.03,ENE,73,6.0,6.0,81,0.00,,,0.00,Wunderground v.1.15,2013-04-22 14:50:00,
2013-04-22 09:55:00,72.1,65.9,30.03,ESE,115,6.0,6.0,81,0.00,,,0.00,Wunderground v.1.15,2013-04-22 14:55:00,
2013-04-22 10:00:00,72.0,65.8,30.03,East,100,6.0,6.0,81,0.00,,,0.00,Wunderground v.1.15,2013-04-22 15:00:00,
2013-04-22 10:10:00,72.1,65.9,30.03,East,96,6.0,9.0,81,0.00,,,0.00,Wunderground v.1.15,2013-04-22 15:10:00,
2013-04-22 10:15:00,72.2,66.4,30.04,ESE,111,6.0,9.0,82,0.00,,,0.00,Wunderground v.1.15,2013-04-22 15:15:00,
2013-04-22 10:20:00,72.6,66.1,30.03,ESE,113,6.0,6.0,80,0.00,,,0.00,Wunderground v.1.15,2013-04-22 15:20:00,
2013-04-22 10:25:00,73.0,66.8,30.04,ESE,110,6.0,7.0,81,0.00,,,0.00,Wunderground v.1.15,2013-04-22 15:25:00,
2013-04-22 10:30:00,73.0,66.5,30.04,ENE,78,6.0,6.0,80,0.00,,,0.00,Wunderground v.1.15,2013-04-22 15:30:00,
2013-04-22 10:35:00,72.9,66.4,30.04,ESE,103,5.0,6.0,80,0.00,,,0.00,Wunderground v.1.15,2013-04-22 15:35:00,
2013-04-22 10:45:00,73.1,66.6,30.04,ESE,104,5.0,6.0,80,0.00,,,0.00,Wunderground v.1.15,2013-04-22 15:45:00,
2013-04-22 10:50:00,72.8,66.6,30.04,SE,141,5.0,7.0,81,0.00,,,0.00,Wunderground v.1.15,2013-04-22 15:50:00,
2013-04-22 10:55:00,72.6,66.4,30.04,SE,124,6.0,7.0,81,0.00,,,0.00,Wunderground v.1.15,2013-04-22 15:55:00,
2013-04-22 11:00:00,72.4,66.6,30.04,NE,51,7.0,7.0,82,0.00,,,0.00,Wunderground v.1.15,2013-04-22 16:00:00,
2013-04-22 11:10:00,72.8,66.6,30.04,ENE,72,5.0,8.0,81,0.00,,,0.00,Wunderground v.1.15,2013-04-22 16:10:00,
2013-04-22 11:15:00,73.0,66.8,30.04,ENE,70,6.0,8.0,81,0.00,,,0.00,Wunderground v.1.15,2013-04-22 16:15:00,
2013-04-22 11:20:00,72.8,66.6,30.04,ESE,105,6.0,6.0,81,0.00,,,0.00,Wunderground v.1.15,2013-04-22 16:20:00,
2013-04-22 11:25:00,73.2,67.0,30.04,East,94,6.0,7.0,81,0.00,,,0.00,Wunderground v.1.15,2013-04-22 16:25:00,
2013-04-22 11:30:00,73.0,66.8,30.04,ENE,58,6.0,6.0,81,0.00,,,0.00,Wunderground v.1.15,2013-04-22 16:30:00,
2013-04-22 11:35:00,72.9,66.7,30.04,ESE,104,6.0,6.0,81,0.00,,,0.00,Wunderground v.1.15,2013-04-22 16:35:00,
2013-04-22 11:40:00,73.3,67.1,30.03,ESE,113,6.0,9.0,81,0.00,,,0.00,Wunderground v.1.15,2013-04-22 16:40:00,
2013-04-22 11:50:00,73.6,67.0,30.03,ENE,77,5.0,6.0,80,0.00,,,0.00,Wunderground v.1.15,2013-04-22 16:50:00,
2013-04-22 11:55:00,73.6,67.4,30.03,SE,129,5.0,6.0,81,0.00,,,0.00,Wunderground v.1.15,2013-04-22 16:55:00,
2013-04-22 12:00:00,73.8,67.2,30.03,East,89,6.0,9.0,80,0.00,,,0.00,Wunderground v.1.15,2013-04-22 17:00:00,
2013-04-22 12:10:00,74.0,67.4,30.03,ESE,105,6.0,8.0,80,0.00,,,0.00,Wunderground v.1.15,2013-04-22 17:10:00,
2013-04-22 12:20:00,74.6,68.0,30.02,ESE,120,6.0,7.0,80,0.00,,,0.00,Wunderground v.1.15,2013-04-22 17:20:00,
2013-04-22 12:25:00,75.0,67.3,30.02,East,90,5.0,7.0,77,0.00,,,0.00,Wunderground v.1.15,2013-04-22 17:25:00,
2013-04-22 12:30:00,74.5,67.6,30.02,East,98,6.0,6.0,79,0.00,,,0.00,Wunderground v.1.15,2013-04-22 17:30:00,
2013-04-22 12:35:00,74.2,67.3,30.01,East,88,7.0,11.0,79,0.00,,,0.00,Wunderground v.1.15,2013-04-22 17:35:00,
2013-04-22 12:40:00,74.3,67.7,30.01,ESE,113,7.0,7.0,80,0.00,,,0.00,Wunderground v.1.15,2013-04-22 17:40:00,
2013-04-22 12:45:00,74.8,67.8,30.00,East,79,8.0,8.0,79,0.00,,,0.00,Wunderground v.1.15,2013-04-22 17:45:00,
2013-04-22 12:55:00,74.5,68.3,30.00,ENE,62,6.0,7.0,81,0.00,,,0.00,Wunderground v.1.15,2013-04-22 17:55:00,
2013-04-22 13:00:00,75.4,68.1,30.00,SE,133,6.0,6.0,78,0.00,,,0.00,Wunderground v.1.15,2013-04-22 18:00:00,
2013-04-22 13:10:00,74.5,67.6,29.99,ESE,119,7.0,7.0,79,0.00,,,0.00,Wunderground v.1.15,2013-04-22 18:10:00,
2013-04-22 13:15:00,75.0,67.7,29.99,ENE,77,7.0,7.0,78,0.00,,,0.00,Wunderground v.1.15,2013-04-22 18:15:00,
2013-04-22 13:25:00,75.3,67.6,29.98,East,99,7.0,11.0,77,0.00,,,0.00,Wunderground v.1.15,2013-04-22 18:25:00,
2013-04-22 13:30:00,75.5,67.8,29.98,East,97,6.0,6.0,77,0.00,,,0.00,Wunderground v.1.15,2013-04-22 18:30:00,
2013-04-22 13:35:00,75.7,68.0,29.98,East,81,6.0,6.0,77,0.00,,,0.00,Wunderground v.1.15,2013-04-22 18:35:00,
2013-04-22 13:40:00,76.1,68.0,29.97,East,79,6.0,6.0,76,0.00,,,0.00,Wunderground v.1.15,2013-04-22 18:40:00,
2013-04-22 13:45:00,76.6,68.5,29.97,ESE,107,6.0,6.0,76,0.00,,,0.00,Wunderground v.1.15,2013-04-22 18:45:00,
2013-04-22 13:50:00,76.4,67.5,29.97,ESE,113,7.0,7.0,74,0.00,,,0.00,Wunderground v.1.15,2013-04-22 18:50:00,
2013-04-22 14:00:00,76.0,67.9,29.97,ESE,112,8.0,11.0,76,0.00,,,0.00,Wunderground v.1.15,2013-04-22 19:00:00,
2013-04-22 14:10:00,76.5,68.0,29.96,East,95,7.0,9.0,75,0.00,,,0.00,Wunderground v.1.15,2013-04-22 19:10:00,
2013-04-22 14:20:00,76.4,67.5,29.95,ENE,58,7.0,7.0,74,0.00,,,0.00,Wunderground v.1.15,2013-04-22 19:20:00,
2013-04-22 14:25:00,76.2,68.1,29.95,East,79,7.0,7.0,76,0.00,,,0.00,Wunderground v.1.15,2013-04-22 19:25:00,
2013-04-22 14:30:00,77.0,68.5,29.95,East,84,6.0,6.0,75,0.00,,,0.00,Wunderground v.1.15,2013-04-22 19:30:00,
2013-04-22 14:35:00,77.0,68.5,29.95,ESE,108,6.0,7.0,75,0.00,,,0.00,Wunderground v.1.15,2013-04-22 19:35:00,
2013-04-22 14:40:00,77.0,68.1,29.95,East,95,7.0,7.0,74,0.00,,,0.00,Wunderground v.1.15,2013-04-22 19:40:00,
2013-04-22 14:45:00,77.0,67.7,29.94,ESE,108,7.0,7.0,73,0.00,,,0.00,Wunderground v.1.15,2013-04-22 19:45:00,
2013-04-22 14:50:00,77.4,67.7,29.94,ESE,121,7.0,7.0,72,0.00,,,0.00,Wunderground v.1.15,2013-04-22 19:50:00,
2013-04-22 14:55:00,76.6,67.7,29.94,ESE,110,8.0,8.0,74,0.00,,,0.00,Wunderground v.1.15,2013-04-22 19:55:00,
2013-04-22 15:00:00,75.8,67.3,29.94,East,92,9.0,11.0,75,0.00,,,0.00,Wunderground v.1.15,2013-04-22 20:00:00,
2013-04-22 15:10:00,75.7,67.6,29.94,ESE,107,9.0,12.0,76,0.00,,,0.00,Wunderground v.1.15,2013-04-22 20:10:00,
2013-04-22 15:15:00,75.8,67.7,29.94,ENE,72,9.0,12.0,76,0.00,,,0.00,Wunderground v.1.15,2013-04-22 20:15:00,
2013-04-22 15:20:00,76.4,67.9,29.93,ESE,113,7.0,8.0,75,0.00,,,0.00,Wunderground v.1.15,2013-04-22 20:20:00,
2013-04-22 15:25:00,75.8,68.1,29.93,East,86,8.0,11.0,77,0.00,,,0.00,Wunderground v.1.15,2013-04-22 20:25:00,
2013-04-22 15:30:00,75.4,67.7,29.93,ENE,58,9.0,9.0,77,0.00,,,0.00,Wunderground v.1.15,2013-04-22 20:30:00,
2013-04-22 15:35:00,75.2,67.5,29.92,SE,131,10.0,10.0,77,0.00,,,0.00,Wunderground v.1.15,2013-04-22 20:35:00,
2013-04-22 15:40:00,75.3,67.6,29.92,East,101,9.0,13.0,77,0.00,,,0.00,Wunderground v.1.15,2013-04-22 20:40:00,
2013-04-22 15:45:00,75.6,67.9,29.92,ESE,117,8.0,13.0,77,0.00,,,0.00,Wunderground v.1.15,2013-04-22 20:45:00,
2013-04-22 15:50:00,76.4,68.7,29.92,NNW,328,7.0,7.0,77,0.00,,,0.00,Wunderground v.1.15,2013-04-22 20:50:00,
2013-04-22 15:55:00,76.6,68.1,29.91,East,101,6.0,7.0,75,0.00,,,0.00,Wunderground v.1.15,2013-04-22 20:55:00,
2013-04-22 16:00:00,76.2,68.5,29.91,East,101,7.0,7.0,77,0.00,,,0.00,Wunderground v.1.15,2013-04-22 21:00:00,
2013-04-22 16:10:00,76.0,67.9,29.91,SE,141,8.0,8.0,76,0.00,,,0.00,Wunderground v.1.15,2013-04-22 21:10:00,
2013-04-22 16:15:00,75.7,68.4,29.91,ESE,110,9.0,9.0,78,0.00,,,0.00,Wunderground v.1.15,2013-04-22 21:15:00,
2013-04-22 16:20:00,76.0,67.9,29.90,ESE,108,8.0,8.0,76,0.00,,,0.00,Wunderground v.1.15,2013-04-22 21:20:00,
2013-04-22 16:25:00,75.7,68.0,29.90,ESE,103,8.0,8.0,77,0.00,,,0.00,Wunderground v.1.15,2013-04-22 21:25:00,
2013-04-22 16:30:00,75.9,68.2,29.90,SE,129,8.0,8.0,77,0.00,,,0.00,Wunderground v.1.15,2013-04-22 21:30:00,
2013-04-22 16:35:00,76.1,68.0,29.90,ESE,105,7.0,10.0,76,0.00,,,0.00,Wunderground v.1.15,2013-04-22 21:35:00,
2013-04-22 16:45:00,75.7,68.4,29.90,East,97,8.0,10.0,78,0.00,,,0.00,Wunderground v.1.15,2013-04-22 21:45:00,
2013-04-22 16:50:00,75.6,67.9,29.90,ESE,113,8.0,10.0,77,0.00,,,0.00,Wunderground v.1.15,2013-04-22 21:50:00,
2013-04-22 16:55:00,75.7,68.4,29.89,East,84,8.0,10.0,78,0.00,,,0.00,Wunderground v.1.15,2013-04-22 21:55:00,
2013-04-22 17:00:00,76.1,67.6,29.89,SE,127,7.0,7.0,75,0.00,,,0.00,Wunderground v.1.15,2013-04-22 22:00:00,
2013-04-22 17:10:00,75.6,67.5,29.89,East,101,9.0,9.0,76,0.00,,,0.00,Wunderground v.1.15,2013-04-22 22:10:00,
2013-04-22 17:15:00,75.9,68.2,29.89,ESE,115,8.0,9.0,77,0.00,,,0.00,Wunderground v.1.15,2013-04-22 22:15:00,
2013-04-22 17:20:00,75.9,67.8,29.89,SE,136,7.0,8.0,76,0.00,,,0.00,Wunderground v.1.15,2013-04-22 22:20:00,
2013-04-22 17:25:00,75.9,68.5,29.89,East,101,7.0,12.0,78,0.00,,,0.00,Wunderground v.1.15,2013-04-22 22:25:00,
2013-04-22 17:30:00,75.5,68.2,29.89,East,86,8.0,8.0,78,0.00,,,0.00,Wunderground v.1.15,2013-04-22 22:30:00,
2013-04-22 17:35:00,75.3,68.3,29.89,ESE,110,7.0,8.0,79,0.00,,,0.00,Wunderground v.1.15,2013-04-22 22:35:00,
2013-04-22 17:40:00,75.4,68.4,29.88,NE,51,7.0,8.0,79,0.00,,,0.00,Wunderground v.1.15,2013-04-22 22:40:00,
2013-04-22 17:55:00,74.8,68.2,29.88,East,89,7.0,8.0,80,0.00,,,0.00,Wunderground v.1.15,2013-04-22 22:55:00,
2013-04-22 18:00:00,74.8,68.6,29.88,East,82,7.0,7.0,81,0.00,,,0.00,Wunderground v.1.15,2013-04-22 23:00:00,
2013-04-22 18:10:00,74.5,68.3,29.88,SE,135,7.0,7.0,81,0.00,,,0.00,Wunderground v.1.15,2013-04-22 23:10:00,
2013-04-22 18:20:00,74.4,67.8,29.88,East,81,8.0,11.0,80,0.00,,,0.00,Wunderground v.1.15,2013-04-22 23:20:00,
2013-04-22 18:25:00,74.2,67.6,29.88,East,82,8.0,11.0,80,0.00,,,0.00,Wunderground v.1.15,2013-04-22 23:25:00,
2013-04-22 18:30:00,74.2,68.0,29.88,ESE,118,8.0,9.0,81,0.00,,,0.00,Wunderground v.1.15,2013-04-22 23:30:00,
2013-04-22 18:35:00,74.1,67.9,29.88,SE,127,7.0,9.0,81,0.00,,,0.00,Wunderground v.1.15,2013-04-22 23:35:00,
2013-04-22 18:40:00,74.0,68.2,29.88,ESE,114,7.0,10.0,82,0.00,,,0.00,Wunderground v.1.15,2013-04-22 23:40:00,
2013-04-22 18:45:00,73.7,67.5,29.88,ESE,123,7.0,10.0,81,0.00,,,0.00,Wunderground v.1.15,2013-04-22 23:45:00,
2013-04-22 18:55:00,73.5,67.7,29.88,ESE,117,8.0,9.0,82,0.00,,,0.00,Wunderground v.1.15,2013-04-22 23:55:00,
2013-04-22 19:00:00,73.6,67.8,29.88,East,99,7.0,10.0,82,0.00,,,0.00,Wunderground v.1.15,2013-04-23 00:00:00,
2013-04-22 19:10:00,73.4,67.9,29.88,SE,146,8.0,11.0,83,0.00,,,0.00,Wunderground v.1.15,2013-04-23 00:10:00,
2013-04-22 19:15:00,73.2,67.7,29.88,ESE,121,8.0,11.0,83,0.00,,,0.00,Wunderground v.1.15,2013-04-23 00:15:00,
2013-04-22 19:25:00,72.8,67.7,29.88,SE,134,7.0,16.0,84,0.00,,,0.00,Wunderground v.1.15,2013-04-23 00:25:00,
2013-04-22 19:30:00,72.6,67.8,29.88,ESE,110,7.0,7.0,85,0.00,,,0.00,Wunderground v.1.15,2013-04-23 00:30:00,
2013-04-22 19:35:00,72.4,67.6,29.88,East,87,7.0,8.0,85,0.00,,,0.00,Wunderground v.1.15,2013-04-23 00:35:00,
2013-04-22 19:40:00,72.3,67.5,29.88,East,94,7.0,9.0,85,0.00,,,0.00,Wunderground v.1.15,2013-04-23 00:40:00,
2013-04-22 19:45:00,72.2,67.8,29.88,ESE,113,6.0,9.0,86,0.00,,,0.00,Wunderground v.1.15,2013-04-23 00:45:00,
2013-04-22 19:50:00,72.0,67.6,29.88,ESE,120,6.0,12.0,86,0.00,,,0.00,Wunderground v.1.15,2013-04-23 00:50:00,
2013-04-22 20:00:00,71.8,67.7,29.88,ESE,116,6.0,15.0,87,0.00,,,0.00,Wunderground v.1.15,2013-04-23 01:00:00,
2013-04-22 20:10:00,71.6,67.5,29.88,SE,132,7.0,13.0,87,0.00,,,0.00,Wunderground v.1.15,2013-04-23 01:10:00,
2013-04-22 20:15:00,71.5,67.4,29.89,SE,131,7.0,13.0,87,0.00,,,0.00,Wunderground v.1.15,2013-04-23 01:15:00,
2013-04-22 20:20:00,71.5,67.4,29.89,SE,146,7.0,8.0,87,0.00,,,0.00,Wunderground v.1.15,2013-04-23 01:20:00,
2013-04-22 20:30:00,71.4,67.7,29.89,ESE,121,7.0,7.0,88,0.00,,,0.00,Wunderground v.1.15,2013-04-23 01:30:00,
2013-04-22 20:35:00,71.3,67.6,29.89,SE,143,7.0,12.0,88,0.00,,,0.00,Wunderground v.1.15,2013-04-23 01:35:00,
2013-04-22 20:40:00,71.3,67.6,29.89,SE,129,7.0,10.0,88,0.00,,,0.00,Wunderground v.1.15,2013-04-23 01:40:00,
2013-04-22 20:45:00,71.2,67.5,29.89,ESE,110,6.0,10.0,88,0.00,,,0.00,Wunderground v.1.15,2013-04-23 01:45:00,
2013-04-22 20:50:00,71.2,67.5,29.89,SSE,152,6.0,7.0,88,0.00,,,0.00,Wunderground v.1.15,2013-04-23 01:50:00,
2013-04-22 20:55:00,71.2,67.5,29.90,SE,133,6.0,7.0,88,0.00,,,0.00,Wunderground v.1.15,2013-04-23 01:55:00,
2013-04-22 21:00:00,71.2,67.5,29.90,ESE,109,5.0,5.0,88,0.00,,,0.00,Wunderground v.1.15,2013-04-23 02:00:00,
2013-04-22 21:10:00,71.2,67.8,29.90,East,101,5.0,5.0,89,0.00,,,0.00,Wunderground v.1.15,2013-04-23 02:10:00,
2013-04-22 21:15:00,71.1,67.7,29.90,SSW,200,5.0,5.0,89,0.00,,,0.00,Wunderground v.1.15,2013-04-23 02:15:00,
2013-04-22 21:20:00,71.1,67.7,29.90,SE,131,5.0,7.0,89,0.00,,,0.00,Wunderground v.1.15,2013-04-23 02:20:00,
2013-04-22 21:25:00,71.1,67.7,29.90,East,81,5.0,11.0,89,0.00,,,0.00,Wunderground v.1.15,2013-04-23 02:25:00,
2013-04-22 21:35:00,71.0,67.6,29.91,ESE,114,4.0,12.0,89,0.00,,,0.00,Wunderground v.1.15,2013-04-23 02:35:00,
2013-04-22 21:40:00,71.0,67.6,29.91,SE,124,6.0,6.0,89,0.00,,,0.00,Wunderground v.1.15,2013-04-23 02:40:00,
2013-04-22 21:45:00,71.0,67.6,29.91,ESE,117,7.0,11.0,89,0.00,,,0.00,Wunderground v.1.15,2013-04-23 02:45:00,
2013-04-22 21:50:00,71.0,67.6,29.91,SE,132,7.0,10.0,89,0.00,,,0.00,Wunderground v.1.15,2013-04-23 02:50:00,
2013-04-22 21:55:00,71.0,67.6,29.91,SSW,210,6.0,10.0,89,0.00,,,0.00,Wunderground v.1.15,2013-04-23 02:55:00,
2013-04-22 22:00:00,70.9,67.5,29.91,ESE,105,5.0,5.0,89,0.00,,,0.00,Wunderground v.1.15,2013-04-23 03:00:00,
2013-04-22 22:10:00,70.8,67.4,29.91,ESE,110,5.0,5.0,89,0.00,,,0.00,Wunderground v.1.15,2013-04-23 03:10:00,
2013-04-22 22:15:00,70.7,67.3,29.91,ESE,114,5.0,5.0,89,0.00,,,0.00,Wunderground v.1.15,2013-04-23 03:15:00,
2013-04-22 22:20:00,70.7,67.3,29.91,South,174,6.0,6.0,89,0.00,,,0.00,Wunderground v.1.15,2013-04-23 03:20:00,
2013-04-22 22:25:00,70.7,67.3,29.91,East,91,5.0,9.0,89,0.00,,,0.00,Wunderground v.1.15,2013-04-23 03:25:00,
2013-04-22 22:30:00,70.7,67.3,29.91,SSE,164,5.0,5.0,89,0.00,,,0.00,Wunderground v.1.15,2013-04-23 03:30:00,
2013-04-22 22:40:00,70.6,67.2,29.91,ESE,105,5.0,6.0,89,0.00,,,0.00,Wunderground v.1.15,2013-04-23 03:40:00,
2013-04-22 22:45:00,70.6,67.2,29.91,South,179,5.0,6.0,89,0.00,,,0.00,Wunderground v.1.15,2013-04-23 03:45:00,
2013-04-22 22:50:00,70.5,67.1,29.91,East,94,5.0,7.0,89,0.00,,,0.00,Wunderground v.1.15,2013-04-23 03:50:00,
2013-04-22 22:55:00,70.5,67.1,29.91,ESE,113,5.0,7.0,89,0.00,,,0.00,Wunderground v.1.15,2013-04-23 03:55:00,
2013-04-22 23:00:00,70.4,67.3,29.91,SE,136,4.0,7.0,90,0.00,,,0.00,Wunderground v.1.15,2013-04-23 04:00:00,
2013-04-22 23:05:00,70.4,67.3,29.91,SE,128,5.0,7.0,90,0.00,,,0.00,Wunderground v.1.15,2013-04-23 04:05:00,
2013-04-22 23:10:00,70.4,67.3,29.91,SSE,168,5.0,6.0,90,0.00,,,0.00,Wunderground v.1.15,2013-04-23 04:10:00,
2013-04-22 23:15:00,70.4,67.0,29.91,SSE,160,5.0,6.0,89,0.00,,,0.00,Wunderground v.1.15,2013-04-23 04:15:00,
2013-04-22 23:20:00,70.3,66.9,29.91,ESE,107,5.0,5.0,89,0.00,,,0.00,Wunderground v.1.15,2013-04-23 04:20:00,
2013-04-22 23:25:00,70.3,66.9,29.91,ESE,104,4.0,5.0,89,0.00,,,0.00,Wunderground v.1.15,2013-04-23 04:25:00,
2013-04-22 23:30:00,70.3,66.9,29.91,SE,132,5.0,6.0,89,0.00,,,0.00,Wunderground v.1.15,2013-04-23 04:30:00,
2013-04-22 23:35:00,70.2,66.8,29.90,East,98,6.0,6.0,89,0.00,,,0.00,Wunderground v.1.15,2013-04-23 04:35:00,
2013-04-22 23:45:00,70.3,66.9,29.90,East,90,6.0,9.0,89,0.00,,,0.00,Wunderground v.1.15,2013-04-23 04:45:00,
2013-04-22 23:50:00,70.3,66.9,29.90,South,170,6.0,6.0,89,0.00,,,0.00,Wunderground v.1.15,2013-04-23 04:50:00,
2013-04-22 23:55:00,70.3,66.9,29.90,ESE,120,5.0,6.0,89,0.00,,,0.00,Wunderground v.1.15,2013-04-23 04:55:00,